Location: Newark
(35.8833°N, 14.5000°E)
Time: 20:50:09
(UTC+00:00)

Altair - Pass Details

Date: 28 November 2019
Orbit: 1502 x 1682 km, 47.2° (Epoch: 05 December)

Event Time Altitude Azimuth Distance (km) Brightness Sun altitude
Rises 08:37:40 0° 285° (WNW) 4,672 9.6 24.8°
Reaches altitude 10° 08:43:35 10° 256° (WSW) 3,720 9.4 25.5°
Maximum altitude 08:46:26 12° 238° (WSW) 3,604 9.5 25.8°
Drops below altitude 10° 08:49:19 10° 219° (SW) 3,757 9.9 26.1°
Sets 08:55:27 0° 190° (S) 4,785 10.8 26.8°
